Flag for U.S.A. Weather past 2 weeks in Savannah, Georgia, U.S.A.

Now
73 °F

Passing clouds.


Feels Like: 73 °F
Forecast: 67 / 76 °F
Wind: 9 mph from Northeast

Location: Hunter U. S. Army Airfield

Current Time: Sep 23, 2014 at 1:04:28 PM

Latest Report: Sep 23, 2014 at 11:58 AM


Visibility: 10 mi

Pressure: 30.13 "Hg

Humidity: 82%

Dew point: 67 °F

Location of SavannahLocation

Historic Weather in Savannah — Graph

°F

Savannah temperature yesterday

Maximum temperature yesterday: 89 °F (at 4:58 PM)
Minimum temperature yesterday: 66 °F (at 6:58 AM)
Average temperature yesterday: 75 °F

Past Weeks' High & Low Weather Summary

 TemperatureHumidityPressure
High90 °F (Sep 12, 2:58 PM)100% (Sep 8, 7:02 PM)30.17 "Hg (Sep 8, 7:02 PM)
Low62 °F (Sep 21, 6:58 AM)42% (Sep 21, 3:58 PM)29.84 "Hg (Sep 17, 5:58 PM)
Average77 °F85%30.02 "Hg
* Reported Sep 8 12:03 PM — Sep 23 11:58 AM, Savannah, Weather by CustomWeather, © 2014

Note: Actual official high and low records may vary slightly from our data, if they occured in-between our weather recording intervals... More about our weather records

Advertising

Savannah weather history for previous 24 hours

 ConditionsComfort  
Time TempWeatherWind HumidityBarometerVisibility
11:58 AM
Sep 23
73 °FPassing clouds.9 mph82%30.13 "Hg10 mi
10:58 AM70 °FBroken clouds.9 mph86%30.12 "Hg10 mi
9:58 AM69 °FPassing clouds.10 mph88%30.11 "Hg10 mi
8:58 AM67 °FPassing clouds.6 mph92%30.11 "Hg10 mi
7:58 AM67 °FPassing clouds.7 mph93%30.09 "Hg10 mi
6:58 AM67 °FLight rain. Mostly cloudy.10 mph91%30.07 "Hg10 mi
5:58 AM68 °FRain. Partly cloudy.16 mph87%30.08 "Hg10 mi
4:58 AM67 °FPassing clouds.10 mph83%30.08 "Hg10 mi
3:58 AM68 °FMostly cloudy.10 mph82%30.05 "Hg10 mi
2:58 AM68 °FPassing clouds.2 mph81%30.02 "Hg10 mi
1:58 AM69 °FPassing clouds.3 mph80%30.03 "Hg10 mi
12:58 AM68 °FPassing clouds.8 mph84%30.04 "Hg10 mi
11:58 PM
Sep 22
69 °FPartly cloudy.8 mph90%30.06 "Hg10 mi
10:58 PM69 °FPassing clouds.13 mph90%30.08 "Hg10 mi
9:58 PM70 °FMostly cloudy.8 mph93%30.08 "Hg10 mi
8:58 PM69 °FPartly cloudy.5 mph92%30.06 "Hg10 mi
7:58 PM71 °FHeavy rain. Overcast.6 mph86%30.05 "Hg4 mi
6:58 PM72 °FBroken clouds.9 mph80%30.02 "Hg10 mi
5:58 PM75 °FPartly sunny.9 mph74%30.00 "Hg10 mi
4:58 PM89 °FSunny.6 mph45%29.95 "Hg10 mi
3:58 PM88 °FScattered clouds.3 mph48%29.95 "Hg10 mi
2:58 PM87 °FSunny.6 mph49%29.96 "Hg10 mi
1:58 PM88 °FSunny.9 mph50%29.99 "Hg10 mi
Weather by CustomWeather, © 2014

See weather overviewHow to use our weather pages